Time,TemperatureF,DewpointF,PressureIn,WindDirection,WindDirectionDegrees,WindSpeedMPH,WindSpeedGustMPH,Humidity,HourlyPrecipIn,Conditions,Clouds,dailyrainin,SoftwareType,DateUTC
2013-03-25 00:00:00,34.3,33.3,29.60,ENE,64,2.0,4.0,96,0.00,,,0.75,meteohub,2013-03-25 04:00:00,
2013-03-25 00:01:00,34.3,33.3,29.60,East,80,1.0,5.0,96,0.00,,,0.75,meteohub,2013-03-25 04:01:00,
2013-03-25 00:06:00,34.3,33.3,29.61,ESE,113,0.0,5.0,96,0.00,,,0.00,meteohub,2013-03-25 04:06:00,
2013-03-25 00:11:00,34.3,33.3,29.61,ESE,112,1.0,3.0,96,0.00,,,0.00,meteohub,2013-03-25 04:11:00,
2013-03-25 00:16:00,34.5,33.4,29.62,ESE,113,0.0,3.0,96,0.00,,,0.00,meteohub,2013-03-25 04:16:00,
2013-03-25 00:21:00,34.5,33.4,29.61,ESE,108,1.0,3.0,96,0.00,,,0.00,meteohub,2013-03-25 04:21:00,
2013-03-25 00:27:00,34.3,33.3,29.61,NNE,26,0.0,2.0,96,0.00,,,0.00,meteohub,2013-03-25 04:27:00,
2013-03-25 00:32:00,34.3,33.3,29.62,NNE,26,0.0,3.0,96,0.00,,,0.00,meteohub,2013-03-25 04:32:00,
2013-03-25 00:37:00,34.5,33.4,29.62,NNE,26,0.0,3.0,96,0.00,,,0.00,meteohub,2013-03-25 04:37:00,
2013-03-25 00:42:00,34.5,33.4,29.62,NNE,26,0.0,3.0,96,0.00,,,0.00,meteohub,2013-03-25 04:42:00,
2013-03-25 00:47:00,34.5,33.4,29.62,NNE,22,0.0,1.0,96,0.00,,,0.00,meteohub,2013-03-25 04:47:00,
2013-03-25 00:52:00,34.5,33.4,29.62,NNE,22,0.0,1.0,96,0.00,,,0.00,meteohub,2013-03-25 04:52:00,
2013-03-25 00:57:00,34.3,33.3,29.61,NNE,22,0.0,1.0,96,0.00,,,0.00,meteohub,2013-03-25 04:57:00,
2013-03-25 01:02:00,34.3,33.3,29.61,NNE,22,0.0,1.0,96,0.00,,,0.00,meteohub,2013-03-25 05:02:00,
2013-03-25 01:08:00,34.3,33.3,29.61,NNE,22,0.0,1.0,96,0.00,,,0.00,meteohub,2013-03-25 05:08:00,
2013-03-25 01:13:00,34.3,33.3,29.60,NE,38,1.0,1.0,96,0.00,,,0.00,meteohub,2013-03-25 05:13:00,
2013-03-25 01:18:00,34.3,33.3,29.60,NE,44,0.0,2.0,96,0.00,,,0.00,meteohub,2013-03-25 05:18:00,
2013-03-25 01:23:00,34.3,33.6,29.60,ESE,103,1.0,2.0,97,0.00,,,0.00,meteohub,2013-03-25 05:23:00,
2013-03-25 01:28:00,34.3,33.6,29.60,ESE,118,0.0,2.0,97,0.00,,,0.00,meteohub,2013-03-25 05:28:00,
2013-03-25 01:33:00,34.3,33.6,29.60,ESE,112,0.0,2.0,97,0.00,,,0.00,meteohub,2013-03-25 05:33:00,
2013-03-25 01:38:00,34.2,33.4,29.60,ESE,112,1.0,2.0,97,0.00,,,0.00,meteohub,2013-03-25 05:38:00,
2013-03-25 01:43:00,34.2,33.4,29.59,East,85,2.0,2.0,97,0.00,,,0.00,meteohub,2013-03-25 05:43:00,
2013-03-25 01:49:00,34.2,33.4,29.60,East,90,0.0,3.0,97,0.00,,,0.00,meteohub,2013-03-25 05:49:00,
2013-03-25 01:54:00,34.2,33.4,29.60,ESE,102,0.0,3.0,97,0.00,,,0.00,meteohub,2013-03-25 05:54:00,
2013-03-25 01:59:00,34.2,33.4,29.60,East,98,0.0,3.0,97,0.00,,,0.00,meteohub,2013-03-25 05:59:00,
2013-03-25 02:04:00,34.2,33.1,29.60,East,98,0.0,2.0,96,0.00,,,0.00,meteohub,2013-03-25 06:04:00,
2013-03-25 02:09:00,34.3,33.6,29.60,East,98,0.0,2.0,97,0.00,,,0.00,meteohub,2013-03-25 06:09:00,
2013-03-25 02:14:00,34.3,33.6,29.60,East,98,0.0,2.0,97,0.00,,,0.00,meteohub,2013-03-25 06:14:00,
2013-03-25 02:19:00,34.2,33.4,29.59,East,98,0.0,1.0,97,0.00,,,0.00,meteohub,2013-03-25 06:19:00,
2013-03-25 02:24:00,34.3,33.6,29.59,East,94,1.0,2.0,97,0.00,,,0.00,meteohub,2013-03-25 06:24:00,
2013-03-25 02:29:00,34.3,33.6,29.60,NNE,24,0.0,2.0,97,0.00,,,0.00,meteohub,2013-03-25 06:29:00,
2013-03-25 02:34:00,34.3,33.6,29.60,NNE,20,0.0,2.0,97,0.00,,,0.00,meteohub,2013-03-25 06:34:00,
2013-03-25 02:40:00,34.2,33.4,29.60,NNE,20,0.0,2.0,97,0.00,,,0.00,meteohub,2013-03-25 06:40:00,
2013-03-25 02:45:00,34.0,33.3,29.60,North,355,0.0,2.0,97,0.00,,,0.00,meteohub,2013-03-25 06:45:00,
2013-03-25 02:50:00,34.0,33.3,29.60,North,355,1.0,2.0,97,0.00,,,0.00,meteohub,2013-03-25 06:50:00,
2013-03-25 02:55:00,34.0,33.3,29.59,North,355,0.0,2.0,97,0.00,,,0.00,meteohub,2013-03-25 06:55:00,
2013-03-25 03:00:00,34.2,33.4,29.59,NNW,333,0.0,2.0,97,0.00,,,0.00,meteohub,2013-03-25 07:00:00,
2013-03-25 03:05:00,34.0,33.3,29.59,NW,312,1.0,3.0,97,0.00,,,0.00,meteohub,2013-03-25 07:05:00,
2013-03-25 03:10:00,34.0,33.3,29.59,NW,312,0.0,3.0,97,0.00,,,0.00,meteohub,2013-03-25 07:10:00,
2013-03-25 03:15:00,34.0,33.3,29.59,NW,312,0.0,3.0,97,0.00,,,0.00,meteohub,2013-03-25 07:15:00,
2013-03-25 03:20:00,34.0,33.3,29.59,NW,312,0.0,2.0,97,0.01,,,0.01,meteohub,2013-03-25 07:20:00,
2013-03-25 03:25:00,34.0,33.3,29.59,NW,312,0.0,1.0,97,0.01,,,0.01,meteohub,2013-03-25 07:25:00,
2013-03-25 03:31:00,33.8,33.1,29.58,NW,312,0.0,1.0,97,0.01,,,0.01,meteohub,2013-03-25 07:31:00,
2013-03-25 03:36:00,33.6,32.9,29.58,NW,312,0.0,1.0,97,0.01,,,0.01,meteohub,2013-03-25 07:36:00,
2013-03-25 03:41:00,33.6,32.9,29.58,WNW,292,0.0,1.0,97,0.01,,,0.01,meteohub,2013-03-25 07:41:00,
2013-03-25 03:46:00,33.8,33.1,29.58,WNW,292,0.0,2.0,97,0.02,,,0.02,meteohub,2013-03-25 07:46:00,
2013-03-25 03:51:00,33.8,33.1,29.58,WNW,292,0.0,2.0,97,0.02,,,0.02,meteohub,2013-03-25 07:51:00,
2013-03-25 03:56:00,33.8,33.1,29.59,WNW,291,0.0,1.0,97,0.02,,,0.02,meteohub,2013-03-25 07:56:00,
2013-03-25 04:01:00,33.8,33.1,29.59,WNW,291,0.0,2.0,97,0.02,,,0.02,meteohub,2013-03-25 08:01:00,
2013-03-25 04:07:00,34.0,33.3,29.59,WNW,291,0.0,2.0,97,0.02,,,0.02,meteohub,2013-03-25 08:07:00,
2013-03-25 04:12:00,33.6,33.1,29.59,WNW,291,0.0,2.0,98,0.02,,,0.02,meteohub,2013-03-25 08:12:00,
2013-03-25 04:17:00,33.6,33.1,29.59,WNW,291,0.0,1.0,98,0.01,,,0.02,meteohub,2013-03-25 08:17:00,
2013-03-25 04:22:00,33.6,33.1,29.59,WNW,286,0.0,1.0,98,0.01,,,0.02,meteohub,2013-03-25 08:22:00,
2013-03-25 04:27:00,33.6,33.1,29.59,WNW,286,0.0,1.0,98,0.01,,,0.02,meteohub,2013-03-25 08:27:00,
2013-03-25 04:32:00,33.4,32.9,29.58,WNW,286,0.0,1.0,98,0.01,,,0.02,meteohub,2013-03-25 08:32:00,
2013-03-25 04:37:00,33.6,33.1,29.58,WNW,286,0.0,1.0,98,0.01,,,0.02,meteohub,2013-03-25 08:37:00,
2013-03-25 04:42:00,33.6,33.1,29.59,WNW,286,0.0,1.0,98,0.01,,,0.02,meteohub,2013-03-25 08:42:00,
2013-03-25 04:47:00,33.6,33.1,29.59,WNW,286,0.0,1.0,98,0.00,,,0.02,meteohub,2013-03-25 08:47:00,
2013-03-25 04:52:00,33.6,33.1,29.59,WNW,285,0.0,0.0,98,0.00,,,0.02,meteohub,2013-03-25 08:52:00,
2013-03-25 04:57:00,33.6,33.1,29.59,WNW,284,0.0,2.0,98,0.00,,,0.02,meteohub,2013-03-25 08:57:00,
2013-03-25 05:02:00,33.6,33.1,29.59,West,281,1.0,2.0,98,0.00,,,0.02,meteohub,2013-03-25 09:02:00,
2013-03-25 05:07:00,33.6,33.1,29.59,WSW,257,0.0,2.0,98,0.00,,,0.02,meteohub,2013-03-25 09:07:00,
2013-03-25 05:13:00,33.6,33.1,29.59,West,270,0.0,2.0,98,0.00,,,0.02,meteohub,2013-03-25 09:13:00,
2013-03-25 05:18:00,33.6,33.1,29.60,West,265,0.0,2.0,98,0.00,,,0.02,meteohub,2013-03-25 09:18:00,
2013-03-25 05:23:00,33.6,33.1,29.59,West,265,1.0,2.0,98,0.00,,,0.02,meteohub,2013-03-25 09:23:00,
2013-03-25 05:28:00,33.6,33.1,29.59,West,265,0.0,2.0,98,0.00,,,0.02,meteohub,2013-03-25 09:28:00,
2013-03-25 05:33:00,33.6,33.1,29.59,West,265,0.0,2.0,98,0.00,,,0.02,meteohub,2013-03-25 09:33:00,
2013-03-25 05:38:00,33.4,32.9,29.59,West,269,1.0,2.0,98,0.00,,,0.02,meteohub,2013-03-25 09:38:00,
2013-03-25 05:43:00,33.4,32.9,29.59,West,269,2.0,2.0,98,0.00,,,0.02,meteohub,2013-03-25 09:43:00,
2013-03-25 05:48:00,33.4,32.9,29.59,West,273,1.0,2.0,98,0.00,,,0.02,meteohub,2013-03-25 09:48:00,
2013-03-25 05:53:00,33.4,32.7,29.59,West,273,0.0,3.0,97,0.00,,,0.02,meteohub,2013-03-25 09:53:00,
2013-03-25 05:59:00,33.4,32.7,29.59,NW,313,0.0,3.0,97,0.00,,,0.02,meteohub,2013-03-25 09:59:00,
2013-03-25 06:04:00,33.4,32.7,29.59,NW,313,0.0,2.0,97,0.00,,,0.02,meteohub,2013-03-25 10:04:00,
2013-03-25 06:09:00,33.4,32.7,29.59,NW,313,0.0,2.0,97,0.00,,,0.02,meteohub,2013-03-25 10:09:00,
2013-03-25 06:14:00,33.4,32.7,29.59,NW,313,0.0,1.0,97,0.00,,,0.02,meteohub,2013-03-25 10:14:00,
2013-03-25 06:19:00,33.4,32.7,29.59,NW,313,0.0,1.0,97,0.00,,,0.02,meteohub,2013-03-25 10:19:00,
2013-03-25 06:24:00,33.4,32.7,29.59,NW,313,0.0,1.0,97,0.00,,,0.02,meteohub,2013-03-25 10:24:00,
2013-03-25 06:29:00,33.4,32.7,29.58,NW,313,0.0,1.0,97,0.00,,,0.02,meteohub,2013-03-25 10:29:00,
2013-03-25 06:34:00,33.4,32.7,29.58,NW,313,0.0,1.0,97,0.00,,,0.02,meteohub,2013-03-25 10:34:00,
2013-03-25 06:40:00,33.4,32.7,29.58,NW,313,0.0,1.0,97,0.00,,,0.02,meteohub,2013-03-25 10:40:00,
2013-03-25 06:45:00,33.4,32.7,29.58,NW,313,0.0,1.0,97,0.00,,,0.02,meteohub,2013-03-25 10:45:00,
2013-03-25 06:50:00,33.4,32.7,29.58,NW,313,0.0,0.0,97,0.00,,,0.02,meteohub,2013-03-25 10:50:00,
2013-03-25 06:55:00,33.4,32.7,29.58,NW,313,0.0,0.0,97,0.00,,,0.02,meteohub,2013-03-25 10:55:00,
2013-03-25 07:00:00,33.4,32.7,29.57,NW,313,0.0,0.0,97,0.00,,,0.02,meteohub,2013-03-25 11:00:00,
2013-03-25 07:05:00,33.4,32.7,29.58,NW,313,0.0,2.0,97,0.00,,,0.02,meteohub,2013-03-25 11:05:00,
2013-03-25 07:11:00,33.4,32.7,29.58,NW,313,0.0,2.0,97,0.00,,,0.02,meteohub,2013-03-25 11:11:00,
2013-03-25 07:15:00,33.4,32.7,29.58,NW,313,0.0,2.0,97,0.00,,,0.02,meteohub,2013-03-25 11:15:00,
2013-03-25 07:21:00,33.4,32.7,29.58,NW,313,0.0,1.0,97,0.00,,,0.02,meteohub,2013-03-25 11:21:00,
2013-03-25 07:26:00,33.4,32.7,29.58,NW,313,0.0,1.0,97,0.00,,,0.02,meteohub,2013-03-25 11:26:00,
2013-03-25 07:31:00,33.3,32.5,29.58,NW,313,0.0,0.0,97,0.00,,,0.02,meteohub,2013-03-25 11:31:00,
2013-03-25 07:36:00,33.4,32.7,29.58,NW,313,0.0,0.0,97,0.00,,,0.02,meteohub,2013-03-25 11:36:00,
2013-03-25 07:42:00,33.4,32.7,29.58,NW,312,0.0,0.0,97,0.00,,,0.02,meteohub,2013-03-25 11:42:00,
2013-03-25 07:47:00,33.4,32.7,29.58,NW,313,0.0,0.0,97,0.00,,,0.02,meteohub,2013-03-25 11:47:00,
2013-03-25 07:52:00,33.6,32.9,29.58,NW,313,0.0,0.0,97,0.00,,,0.02,meteohub,2013-03-25 11:52:00,
2013-03-25 07:57:00,33.6,32.9,29.59,NW,312,0.0,0.0,97,0.00,,,0.02,meteohub,2013-03-25 11:57:00,
2013-03-25 08:02:00,33.6,32.9,29.59,WNW,298,0.0,2.0,97,0.00,,,0.02,meteohub,2013-03-25 12:02:00,
2013-03-25 08:07:00,33.8,33.1,29.59,WNW,298,0.0,2.0,97,0.00,,,0.02,meteohub,2013-03-25 12:07:00,
2013-03-25 08:12:00,33.8,33.1,29.59,WNW,298,0.0,2.0,97,0.00,,,0.02,meteohub,2013-03-25 12:12:00,
2013-03-25 08:17:00,33.8,33.1,29.60,WNW,298,0.0,2.0,97,0.00,,,0.02,meteohub,2013-03-25 12:17:00,
2013-03-25 08:23:00,33.8,33.1,29.60,West,279,0.0,2.0,97,0.00,,,0.02,meteohub,2013-03-25 12:23:00,
2013-03-25 08:29:00,34.0,33.3,29.60,West,263,1.0,2.0,97,0.00,,,0.02,meteohub,2013-03-25 12:29:00,
2013-03-25 08:34:00,34.0,33.3,29.60,WNW,286,0.0,2.0,97,0.00,,,0.02,meteohub,2013-03-25 12:34:00,
2013-03-25 08:39:00,34.0,33.3,29.60,West,271,2.0,2.0,97,0.00,,,0.02,meteohub,2013-03-25 12:39:00,
2013-03-25 08:44:00,34.0,33.3,29.60,SW,232,3.0,3.0,97,0.00,,,0.02,meteohub,2013-03-25 12:44:00,
2013-03-25 08:49:00,34.0,33.3,29.60,West,270,2.0,4.0,97,0.00,,,0.02,meteohub,2013-03-25 12:49:00,
2013-03-25 08:54:00,34.2,33.4,29.61,WSW,246,4.0,4.0,97,0.00,,,0.02,meteohub,2013-03-25 12:54:00,
2013-03-25 09:00:00,34.2,33.4,29.61,West,271,2.0,4.0,97,0.00,,,0.02,meteohub,2013-03-25 13:00:00,
2013-03-25 09:04:00,34.3,33.6,29.61,West,278,1.0,4.0,97,0.00,,,0.02,meteohub,2013-03-25 13:04:00,
2013-03-25 09:10:00,34.3,33.6,29.61,West,271,2.0,4.0,97,0.00,,,0.02,meteohub,2013-03-25 13:10:00,
2013-03-25 09:15:00,34.3,33.6,29.61,WSW,239,2.0,3.0,97,0.00,,,0.02,meteohub,2013-03-25 13:15:00,
2013-03-25 09:20:00,34.5,33.8,29.61,WNW,285,0.0,3.0,97,0.00,,,0.02,meteohub,2013-03-25 13:20:00,
2013-03-25 09:25:00,34.9,34.2,29.61,WNW,285,0.0,3.0,97,0.00,,,0.02,meteohub,2013-03-25 13:25:00,
2013-03-25 09:30:00,34.9,34.2,29.60,West,269,1.0,3.0,97,0.00,,,0.02,meteohub,2013-03-25 13:30:00,
2013-03-25 09:35:00,35.1,34.3,29.60,West,280,0.0,3.0,97,0.00,,,0.02,meteohub,2013-03-25 13:35:00,
2013-03-25 09:40:00,35.2,34.5,29.60,West,281,1.0,4.0,97,0.00,,,0.02,meteohub,2013-03-25 13:40:00,
2013-03-25 09:45:00,35.4,34.3,29.60,West,263,2.0,4.0,96,0.00,,,0.02,meteohub,2013-03-25 13:45:00,
2013-03-25 09:50:00,35.8,34.7,29.60,WSW,243,1.0,5.0,96,0.00,,,0.02,meteohub,2013-03-25 13:50:00,
2013-03-25 09:55:00,36.0,34.9,29.60,WNW,300,3.0,5.0,96,0.00,,,0.02,meteohub,2013-03-25 13:55:00,
2013-03-25 10:01:00,36.0,34.9,29.60,WNW,286,1.0,4.0,96,0.00,,,0.02,meteohub,2013-03-25 14:01:00,
2013-03-25 10:06:00,36.3,35.2,29.60,WSW,256,0.0,4.0,96,0.00,,,0.02,meteohub,2013-03-25 14:06:00,
2013-03-25 10:11:00,36.5,35.2,29.60,WSW,242,2.0,4.0,95,0.00,,,0.02,meteohub,2013-03-25 14:11:00,
2013-03-25 10:16:00,36.5,35.2,29.60,WSW,255,2.0,5.0,95,0.00,,,0.02,meteohub,2013-03-25 14:16:00,
2013-03-25 10:21:00,36.7,35.4,29.61,WSW,252,3.0,6.0,95,0.00,,,0.02,meteohub,2013-03-25 14:21:00,
2013-03-25 10:27:00,37.0,35.8,29.61,WSW,254,0.0,6.0,95,0.00,,,0.02,meteohub,2013-03-25 14:27:00,
2013-03-25 10:32:00,37.6,36.0,29.61,West,265,1.0,6.0,94,0.00,,,0.02,meteohub,2013-03-25 14:32:00,
2013-03-25 10:37:00,38.3,36.5,29.61,SW,216,2.0,7.0,93,0.00,,,0.02,meteohub,2013-03-25 14:37:00,
2013-03-25 10:42:00,38.3,36.0,29.61,West,264,2.0,7.0,91,0.00,,,0.02,meteohub,2013-03-25 14:42:00,
2013-03-25 10:47:00,38.7,36.0,29.61,SW,236,5.0,7.0,90,0.00,,,0.02,meteohub,2013-03-25 14:47:00,
2013-03-25 10:52:00,39.0,36.3,29.61,West,267,3.0,8.0,90,0.00,,,0.02,meteohub,2013-03-25 14:52:00,
2013-03-25 10:57:00,39.6,36.5,29.61,SW,232,4.0,8.0,89,0.00,,,0.02,meteohub,2013-03-25 14:57:00,
2013-03-25 11:02:00,39.6,36.3,29.61,West,266,3.0,8.0,88,0.00,,,0.02,meteohub,2013-03-25 15:02:00,
2013-03-25 11:07:00,40.8,37.0,29.61,WSW,237,3.0,5.0,86,0.00,,,0.02,meteohub,2013-03-25 15:07:00,
2013-03-25 11:12:00,41.0,36.3,29.61,SW,232,2.0,7.0,83,0.00,,,0.02,meteohub,2013-03-25 15:12:00,
2013-03-25 11:17:00,40.6,36.1,29.61,SW,227,0.0,7.0,84,0.00,,,0.02,meteohub,2013-03-25 15:17:00,
2013-03-25 11:23:00,40.8,35.8,29.61,WNW,299,4.0,7.0,82,0.00,,,0.02,meteohub,2013-03-25 15:23:00,
2013-03-25 11:28:00,40.8,36.1,29.61,WNW,286,1.0,8.0,83,0.00,,,0.02,meteohub,2013-03-25 15:28:00,
2013-03-25 11:33:00,41.5,35.2,29.61,South,180,5.0,8.0,78,0.00,,,0.02,meteohub,2013-03-25 15:33:00,
2013-03-25 11:38:00,41.5,35.8,29.61,WSW,252,2.0,10.0,80,0.00,,,0.02,meteohub,2013-03-25 15:38:00,
2013-03-25 11:43:00,42.1,35.8,29.61,WNW,295,4.0,10.0,78,0.00,,,0.02,meteohub,2013-03-25 15:43:00,
2013-03-25 11:48:00,42.1,35.4,29.61,WNW,288,1.0,10.0,77,0.00,,,0.02,meteohub,2013-03-25 15:48:00,
2013-03-25 11:53:00,42.8,35.8,29.61,SW,221,6.0,7.0,76,0.00,,,0.02,meteohub,2013-03-25 15:53:00,
2013-03-25 11:58:00,43.9,35.4,29.61,West,263,5.0,8.0,72,0.00,,,0.02,meteohub,2013-03-25 15:58:00,
2013-03-25 12:03:00,43.5,34.0,29.61,WNW,293,3.0,10.0,69,0.00,,,0.02,meteohub,2013-03-25 16:03:00,
2013-03-25 12:08:00,44.4,34.2,29.60,WSW,244,2.0,10.0,67,0.00,,,0.02,meteohub,2013-03-25 16:08:00,
2013-03-25 12:14:00,44.8,34.5,29.60,SW,215,4.0,10.0,67,0.00,,,0.02,meteohub,2013-03-25 16:14:00,
2013-03-25 12:19:00,44.8,33.8,29.61,WSW,241,4.0,11.0,65,0.00,,,0.02,meteohub,2013-03-25 16:19:00,
2013-03-25 12:24:00,44.1,31.1,29.61,WSW,238,1.0,11.0,60,0.00,,,0.02,meteohub,2013-03-25 16:24:00,
2013-03-25 12:29:00,43.9,32.2,29.60,West,264,4.0,8.0,63,0.00,,,0.02,meteohub,2013-03-25 16:29:00,
2013-03-25 12:34:00,43.7,31.5,29.61,SW,234,3.0,8.0,62,0.00,,,0.02,meteohub,2013-03-25 16:34:00,
2013-03-25 12:39:00,43.3,30.4,29.61,West,281,5.0,8.0,60,0.00,,,0.02,meteohub,2013-03-25 16:39:00,
2013-03-25 12:44:00,43.7,31.5,29.61,NW,325,2.0,10.0,62,0.00,,,0.02,meteohub,2013-03-25 16:44:00,
2013-03-25 12:49:00,44.2,31.6,29.61,SW,216,4.0,11.0,61,0.00,,,0.02,meteohub,2013-03-25 16:49:00,
2013-03-25 12:54:00,46.6,31.3,29.60,West,271,2.0,11.0,55,0.00,,,0.02,meteohub,2013-03-25 16:54:00,
2013-03-25 12:59:00,46.8,30.6,29.61,WSW,247,7.0,11.0,53,0.00,,,0.02,meteohub,2013-03-25 16:59:00,
2013-03-25 13:05:00,45.3,27.9,29.61,WSW,258,10.0,13.0,50,0.00,,,0.02,meteohub,2013-03-25 17:05:00,
2013-03-25 13:10:00,44.8,27.3,29.61,WSW,244,4.0,13.0,50,0.00,,,0.02,meteohub,2013-03-25 17:10:00,
2013-03-25 13:15:00,44.4,27.5,29.61,SW,236,5.0,13.0,51,0.00,,,0.02,meteohub,2013-03-25 17:15:00,
2013-03-25 13:20:00,45.0,28.4,29.61,WSW,257,6.0,11.0,52,0.00,,,0.02,meteohub,2013-03-25 17:20:00,
2013-03-25 13:25:00,45.5,28.9,29.61,West,269,1.0,10.0,52,0.00,,,0.02,meteohub,2013-03-25 17:25:00,
2013-03-25 13:31:00,45.3,27.3,29.61,West,259,3.0,10.0,49,0.00,,,0.02,meteohub,2013-03-25 17:31:00,
2013-03-25 13:36:00,44.6,27.5,29.61,WSW,249,3.0,10.0,51,0.00,,,0.02,meteohub,2013-03-25 17:36:00,
2013-03-25 13:41:00,44.2,25.7,29.61,WSW,255,5.0,10.0,48,0.00,,,0.02,meteohub,2013-03-25 17:41:00,
2013-03-25 13:46:00,44.1,26.1,29.62,WSW,244,2.0,10.0,49,0.00,,,0.02,meteohub,2013-03-25 17:46:00,
2013-03-25 13:51:00,44.1,26.1,29.62,WSW,246,4.0,10.0,49,0.00,,,0.02,meteohub,2013-03-25 17:51:00,
2013-03-25 13:56:00,43.9,25.5,29.63,SW,223,11.0,12.0,48,0.00,,,0.02,meteohub,2013-03-25 17:56:00,
2013-03-25 14:01:00,43.5,25.7,29.62,WSW,250,6.0,12.0,49,0.00,,,0.02,meteohub,2013-03-25 18:01:00,
2013-03-25 14:07:00,44.8,26.2,29.62,WSW,251,10.0,12.0,48,0.00,,,0.02,meteohub,2013-03-25 18:07:00,
2013-03-25 14:12:00,45.0,25.9,29.62,West,267,5.0,12.0,47,0.00,,,0.02,meteohub,2013-03-25 18:12:00,
2013-03-25 14:17:00,44.4,25.5,29.62,WSW,246,3.0,13.0,47,0.00,,,0.02,meteohub,2013-03-25 18:17:00,
2013-03-25 14:22:00,43.9,25.9,29.62,SW,228,6.0,13.0,49,0.00,,,0.02,meteohub,2013-03-25 18:22:00,
2013-03-25 14:27:00,43.5,26.1,29.62,SSW,202,7.0,13.0,50,0.00,,,0.02,meteohub,2013-03-25 18:27:00,
2013-03-25 14:32:00,43.9,25.5,29.62,WNW,302,7.0,14.0,48,0.00,,,0.02,meteohub,2013-03-25 18:32:00,
2013-03-25 14:37:00,44.1,28.0,29.62,WSW,242,7.0,14.0,53,0.00,,,0.02,meteohub,2013-03-25 18:37:00,
2013-03-25 14:42:00,43.7,28.6,29.62,West,266,11.0,14.0,55,0.00,,,0.02,meteohub,2013-03-25 18:42:00,
2013-03-25 14:47:00,44.1,28.4,29.62,WNW,286,3.0,13.0,54,0.00,,,0.02,meteohub,2013-03-25 18:47:00,
2013-03-25 14:52:00,44.8,27.7,29.62,WSW,241,2.0,13.0,51,0.00,,,0.02,meteohub,2013-03-25 18:52:00,
2013-03-25 14:57:00,44.8,26.8,29.62,West,281,6.0,13.0,49,0.00,,,0.02,meteohub,2013-03-25 18:57:00,
2013-03-25 15:02:00,45.0,25.3,29.61,NW,315,3.0,11.0,46,0.00,,,0.02,meteohub,2013-03-25 19:02:00,
2013-03-25 15:07:00,46.2,26.6,29.61,WNW,291,8.0,15.0,46,0.00,,,0.02,meteohub,2013-03-25 19:07:00,
2013-03-25 15:12:00,46.2,24.4,29.61,SW,236,4.0,15.0,42,0.00,,,0.02,meteohub,2013-03-25 19:12:00,
2013-03-25 15:17:00,46.2,26.1,29.61,WSW,237,7.0,15.0,45,0.00,,,0.02,meteohub,2013-03-25 19:17:00,
2013-03-25 15:23:00,46.6,27.0,29.61,WSW,246,2.0,15.0,46,0.00,,,0.02,meteohub,2013-03-25 19:23:00,
2013-03-25 15:28:00,47.3,27.5,29.61,West,264,7.0,15.0,46,0.00,,,0.02,meteohub,2013-03-25 19:28:00,
2013-03-25 15:33:00,46.2,25.5,29.61,WSW,241,5.0,10.0,44,0.00,,,0.02,meteohub,2013-03-25 19:33:00,
2013-03-25 15:38:00,46.4,26.8,29.61,NW,315,8.0,13.0,46,0.00,,,0.02,meteohub,2013-03-25 19:38:00,
2013-03-25 15:43:00,46.0,26.4,29.61,WSW,254,5.0,14.0,46,0.00,,,0.02,meteohub,2013-03-25 19:43:00,
2013-03-25 15:50:00,46.8,27.7,29.61,SW,227,4.0,14.0,47,0.00,,,0.02,meteohub,2013-03-25 19:50:00,
2013-03-25 15:55:00,45.9,24.6,29.62,WNW,295,6.0,14.0,43,0.00,,,0.02,meteohub,2013-03-25 19:55:00,
2013-03-25 16:00:00,45.3,25.7,29.62,SW,223,9.0,15.0,46,0.00,,,0.02,meteohub,2013-03-25 20:00:00,
2013-03-25 16:05:00,45.3,23.5,29.62,WSW,258,3.0,15.0,42,0.00,,,0.02,meteohub,2013-03-25 20:05:00,
2013-03-25 16:10:00,45.5,24.8,29.62,WSW,250,4.0,12.0,44,0.00,,,0.02,meteohub,2013-03-25 20:10:00,
2013-03-25 16:15:00,45.1,23.9,29.62,SSW,207,4.0,12.0,43,0.00,,,0.02,meteohub,2013-03-25 20:15:00,
2013-03-25 16:20:00,45.1,24.4,29.63,WSW,252,3.0,12.0,44,0.00,,,0.02,meteohub,2013-03-25 20:20:00,
2013-03-25 16:25:00,45.0,25.0,29.63,NNW,336,7.0,12.0,45,0.00,,,0.02,meteohub,2013-03-25 20:25:00,
2013-03-25 16:30:00,45.0,25.3,29.63,NW,313,6.0,11.0,46,0.00,,,0.02,meteohub,2013-03-25 20:30:00,
2013-03-25 16:35:00,44.8,24.3,29.63,NW,312,8.0,12.0,44,0.00,,,0.02,meteohub,2013-03-25 20:35:00,
2013-03-25 16:41:00,44.2,24.8,29.64,WSW,242,4.0,12.0,46,0.00,,,0.02,meteohub,2013-03-25 20:41:00,
2013-03-25 16:46:00,44.4,25.5,29.64,SW,229,6.0,12.0,47,0.00,,,0.02,meteohub,2013-03-25 20:46:00,
2013-03-25 16:51:00,44.4,25.0,29.64,WNW,298,5.0,9.0,46,0.00,,,0.02,meteohub,2013-03-25 20:51:00,
2013-03-25 16:56:00,44.2,24.3,29.64,West,262,4.0,8.0,45,0.00,,,0.02,meteohub,2013-03-25 20:56:00,
2013-03-25 17:01:00,44.4,24.4,29.65,West,266,4.0,8.0,45,0.00,,,0.02,meteohub,2013-03-25 21:01:00,
2013-03-25 17:06:00,44.6,24.1,29.65,West,264,4.0,7.0,44,0.00,,,0.02,meteohub,2013-03-25 21:06:00,
2013-03-25 17:12:00,44.6,23.5,29.65,West,281,6.0,10.0,43,0.00,,,0.02,meteohub,2013-03-25 21:12:00,
2013-03-25 17:17:00,44.6,23.0,29.65,West,263,4.0,10.0,42,0.00,,,0.02,meteohub,2013-03-25 21:17:00,
2013-03-25 17:22:00,44.8,24.3,29.65,NW,304,7.0,10.0,44,0.00,,,0.02,meteohub,2013-03-25 21:22:00,
2013-03-25 17:27:00,44.8,23.7,29.65,WSW,249,2.0,10.0,43,0.00,,,0.02,meteohub,2013-03-25 21:27:00,
2013-03-25 17:32:00,44.8,23.0,29.65,WSW,246,4.0,10.0,42,0.00,,,0.02,meteohub,2013-03-25 21:32:00,
2013-03-25 17:37:00,45.0,23.7,29.65,WSW,249,4.0,10.0,43,0.00,,,0.02,meteohub,2013-03-25 21:37:00,
2013-03-25 17:42:00,45.0,23.2,29.65,SW,229,5.0,10.0,42,0.00,,,0.02,meteohub,2013-03-25 21:42:00,
2013-03-25 17:47:00,44.8,23.7,29.66,West,269,2.0,10.0,43,0.00,,,0.02,meteohub,2013-03-25 21:47:00,
2013-03-25 17:52:00,44.4,22.8,29.66,WNW,302,6.0,9.0,42,0.00,,,0.02,meteohub,2013-03-25 21:52:00,
2013-03-25 17:58:00,44.6,23.5,29.66,NW,312,5.0,11.0,43,0.00,,,0.02,meteohub,2013-03-25 21:58:00,
2013-03-25 18:02:00,44.6,23.0,29.67,WSW,244,4.0,11.0,42,0.00,,,0.02,meteohub,2013-03-25 22:02:00,
2013-03-25 18:08:00,44.4,22.1,29.67,WNW,292,3.0,10.0,41,0.00,,,0.02,meteohub,2013-03-25 22:08:00,
2013-03-25 18:13:00,44.2,22.6,29.68,West,270,5.0,10.0,42,0.00,,,0.02,meteohub,2013-03-25 22:13:00,
2013-03-25 18:18:00,44.2,23.7,29.68,WNW,293,4.0,10.0,44,0.00,,,0.02,meteohub,2013-03-25 22:18:00,
2013-03-25 18:23:00,44.1,22.5,29.68,West,268,6.0,10.0,42,0.00,,,0.02,meteohub,2013-03-25 22:23:00,
2013-03-25 18:28:00,44.1,23.5,29.68,SW,236,3.0,14.0,44,0.00,,,0.02,meteohub,2013-03-25 22:28:00,
2013-03-25 18:33:00,43.7,22.6,29.68,WNW,296,2.0,14.0,43,0.00,,,0.02,meteohub,2013-03-25 22:33:00,
2013-03-25 18:38:00,43.5,23.0,29.68,WSW,243,5.0,14.0,44,0.00,,,0.02,meteohub,2013-03-25 22:38:00,
2013-03-25 18:43:00,43.5,23.0,29.69,West,264,3.0,17.0,44,0.00,,,0.02,meteohub,2013-03-25 22:43:00,
2013-03-25 18:48:00,43.5,23.0,29.69,NW,311,5.0,17.0,44,0.00,,,0.02,meteohub,2013-03-25 22:48:00,
2013-03-25 18:54:00,43.5,23.5,29.69,WNW,300,2.0,10.0,45,0.00,,,0.02,meteohub,2013-03-25 22:54:00,
2013-03-25 18:59:00,43.3,23.4,29.69,WSW,254,4.0,10.0,45,0.00,,,0.02,meteohub,2013-03-25 22:59:00,
2013-03-25 19:04:00,43.3,23.9,29.70,WSW,257,2.0,10.0,46,0.00,,,0.02,meteohub,2013-03-25 23:04:00,
2013-03-25 19:09:00,43.3,23.4,29.70,WSW,255,4.0,6.0,45,0.00,,,0.02,meteohub,2013-03-25 23:09:00,
2013-03-25 19:14:00,43.3,24.4,29.71,WSW,240,2.0,9.0,47,0.00,,,0.02,meteohub,2013-03-25 23:14:00,
2013-03-25 19:19:00,43.2,23.7,29.71,WSW,246,4.0,12.0,46,0.00,,,0.02,meteohub,2013-03-25 23:19:00,
2013-03-25 19:24:00,43.2,24.3,29.71,West,273,3.0,12.0,47,0.00,,,0.02,meteohub,2013-03-25 23:24:00,
2013-03-25 19:29:00,43.2,23.7,29.72,WSW,249,2.0,8.0,46,0.00,,,0.02,meteohub,2013-03-25 23:29:00,
2013-03-25 19:34:00,43.0,24.6,29.72,SW,236,3.0,8.0,48,0.00,,,0.02,meteohub,2013-03-25 23:34:00,
2013-03-25 19:39:00,42.6,24.8,29.72,WNW,296,2.0,6.0,49,0.00,,,0.02,meteohub,2013-03-25 23:39:00,
2013-03-25 19:44:00,42.4,23.7,29.72,West,265,2.0,6.0,47,0.00,,,0.02,meteohub,2013-03-25 23:44:00,
2013-03-25 19:49:00,42.4,23.7,29.73,WNW,303,3.0,8.0,47,0.00,,,0.02,meteohub,2013-03-25 23:49:00,
2013-03-25 19:55:00,42.4,23.7,29.73,West,259,3.0,13.0,47,0.00,,,0.02,meteohub,2013-03-25 23:55:00,
2013-03-25 20:00:00,42.4,24.1,29.74,SW,236,3.0,13.0,48,0.00,,,0.02,meteohub,2013-03-26 00:00:00,
2013-03-25 20:05:00,42.4,24.1,29.74,West,261,4.0,13.0,48,0.00,,,0.02,meteohub,2013-03-26 00:05:00,
2013-03-25 20:10:00,42.3,23.9,29.74,SW,227,3.0,10.0,48,0.00,,,0.02,meteohub,2013-03-26 00:10:00,
2013-03-25 20:15:00,42.1,23.7,29.74,WSW,256,4.0,8.0,48,0.00,,,0.02,meteohub,2013-03-26 00:15:00,
2013-03-25 20:20:00,41.7,23.9,29.75,WSW,257,2.0,10.0,49,0.00,,,0.02,meteohub,2013-03-26 00:20:00,
2013-03-25 20:25:00,41.5,23.7,29.75,West,263,1.0,6.0,49,0.00,,,0.02,meteohub,2013-03-26 00:25:00,
2013-03-25 20:30:00,41.5,24.3,29.75,West,269,3.0,6.0,50,0.00,,,0.02,meteohub,2013-03-26 00:30:00,
2013-03-25 20:36:00,41.5,24.3,29.75,WSW,243,6.0,7.0,50,0.00,,,0.02,meteohub,2013-03-26 00:36:00,
2013-03-25 20:42:00,41.7,23.9,29.76,WNW,290,1.0,7.0,49,0.00,,,0.02,meteohub,2013-03-26 00:42:00,
2013-03-25 20:47:00,41.5,23.7,29.76,West,266,1.0,6.0,49,0.00,,,0.02,meteohub,2013-03-26 00:47:00,
2013-03-25 20:52:00,41.4,24.1,29.76,West,281,1.0,6.0,50,0.00,,,0.02,meteohub,2013-03-26 00:52:00,
2013-03-25 20:57:00,41.4,24.1,29.77,West,276,1.0,4.0,50,0.00,,,0.02,meteohub,2013-03-26 00:57:00,
2013-03-25 21:02:00,41.2,24.8,29.77,WSW,255,0.0,3.0,52,0.00,,,0.02,meteohub,2013-03-26 01:02:00,
2013-03-25 21:07:00,40.8,24.6,29.77,West,275,0.0,3.0,52,0.00,,,0.02,meteohub,2013-03-26 01:07:00,
2013-03-25 21:12:00,40.6,24.4,29.77,NW,311,0.0,3.0,52,0.00,,,0.02,meteohub,2013-03-26 01:12:00,
2013-03-25 21:17:00,40.6,24.4,29.78,NW,310,1.0,3.0,52,0.00,,,0.02,meteohub,2013-03-26 01:17:00,
2013-03-25 21:22:00,40.5,24.3,29.78,WNW,285,1.0,3.0,52,0.00,,,0.02,meteohub,2013-03-26 01:22:00,
2013-03-25 21:27:00,40.5,24.6,29.78,WNW,292,2.0,2.0,53,0.00,,,0.02,meteohub,2013-03-26 01:27:00,
2013-03-25 21:32:00,40.5,24.6,29.78,West,280,1.0,4.0,53,0.00,,,0.02,meteohub,2013-03-26 01:32:00,
2013-03-25 21:37:00,40.5,24.6,29.78,WNW,302,3.0,4.0,53,0.00,,,0.02,meteohub,2013-03-26 01:37:00,
2013-03-25 21:42:00,40.5,24.3,29.78,WNW,292,1.0,7.0,52,0.00,,,0.02,meteohub,2013-03-26 01:42:00,
2013-03-25 21:47:00,40.3,24.1,29.79,West,266,5.0,7.0,52,0.00,,,0.02,meteohub,2013-03-26 01:47:00,
2013-03-25 21:52:00,40.5,23.7,29.79,WNW,290,3.0,8.0,51,0.00,,,0.02,meteohub,2013-03-26 01:52:00,
2013-03-25 21:57:00,40.5,23.7,29.79,NW,304,2.0,10.0,51,0.00,,,0.02,meteohub,2013-03-26 01:57:00,
2013-03-25 22:02:00,40.3,23.2,29.79,SW,232,3.0,10.0,50,0.00,,,0.02,meteohub,2013-03-26 02:02:00,
2013-03-25 22:07:00,39.9,23.2,29.80,WSW,242,0.0,9.0,51,0.00,,,0.02,meteohub,2013-03-26 02:07:00,
2013-03-25 22:12:00,39.9,23.2,29.80,West,280,2.0,11.0,51,0.00,,,0.02,meteohub,2013-03-26 02:12:00,
2013-03-25 22:17:00,39.6,23.4,29.80,WNW,290,3.0,11.0,52,0.00,,,0.02,meteohub,2013-03-26 02:17:00,
2013-03-25 22:22:00,39.6,23.0,29.80,West,275,6.0,11.0,51,0.00,,,0.02,meteohub,2013-03-26 02:22:00,
2013-03-25 22:28:00,39.4,23.2,29.81,WSW,255,4.0,7.0,52,0.00,,,0.02,meteohub,2013-03-26 02:28:00,
2013-03-25 22:33:00,39.4,23.2,29.81,SSW,207,4.0,7.0,52,0.00,,,0.02,meteohub,2013-03-26 02:33:00,
2013-03-25 22:38:00,39.4,23.7,29.81,NW,304,3.0,7.0,53,0.00,,,0.02,meteohub,2013-03-26 02:38:00,
2013-03-25 22:43:00,39.4,23.7,29.81,WSW,254,4.0,7.0,53,0.00,,,0.02,meteohub,2013-03-26 02:43:00,
2013-03-25 22:48:00,39.4,23.7,29.81,WSW,254,2.0,7.0,53,0.00,,,0.02,meteohub,2013-03-26 02:48:00,
2013-03-25 22:53:00,39.2,23.5,29.81,WSW,248,4.0,6.0,53,0.00,,,0.02,meteohub,2013-03-26 02:53:00,
2013-03-25 22:58:00,38.8,23.2,29.81,NW,308,2.0,6.0,53,0.00,,,0.02,meteohub,2013-03-26 02:58:00,
2013-03-25 23:03:00,38.8,23.5,29.81,WNW,291,4.0,7.0,54,0.00,,,0.02,meteohub,2013-03-26 03:03:00,
2013-03-25 23:08:00,38.7,23.4,29.81,WNW,289,4.0,8.0,54,0.00,,,0.02,meteohub,2013-03-26 03:08:00,
2013-03-25 23:13:00,38.5,23.4,29.81,NW,307,5.0,9.0,54,0.00,,,0.02,meteohub,2013-03-26 03:13:00,
2013-03-25 23:19:00,38.5,23.4,29.81,SW,231,1.0,9.0,54,0.00,,,0.02,meteohub,2013-03-26 03:19:00,
2013-03-25 23:24:00,38.5,23.4,29.82,West,262,3.0,9.0,54,0.00,,,0.02,meteohub,2013-03-26 03:24:00,
2013-03-25 23:29:00,38.5,23.4,29.82,WSW,250,3.0,7.0,54,0.00,,,0.02,meteohub,2013-03-26 03:29:00,
2013-03-25 23:34:00,38.3,23.5,29.82,WSW,252,2.0,7.0,55,0.00,,,0.02,meteohub,2013-03-26 03:34:00,
2013-03-25 23:39:00,38.1,23.4,29.82,West,261,2.0,7.0,55,0.00,,,0.02,meteohub,2013-03-26 03:39:00,
2013-03-25 23:44:00,37.9,23.2,29.82,WNW,286,3.0,7.0,55,0.00,,,0.02,meteohub,2013-03-26 03:44:00,
2013-03-25 23:49:00,37.9,23.2,29.82,West,261,2.0,6.0,55,0.00,,,0.02,meteohub,2013-03-26 03:49:00,
2013-03-25 23:55:00,37.6,23.7,29.82,West,263,1.0,7.0,57,0.00,,,0.02,meteohub,2013-03-26 03:55:00,